Weather History for KO22 - April, 2014

Change the Weather History Date:

Monday, April 28, 2014

  Actual Average (KMOD) Record (KMOD)
Temperature  
Mean Temperature 52 °F -  
Max Temperature 69 °F 78 °F 95 °F (2007)
Min Temperature 35 °F 52 °F 35 °F (1967)
Degree Days  
Heating Degree Days 13 3  
Month to date heating degree days 126  
Since 1 July heating degree days 2131  
Cooling Degree Days 0 2  
Month to date cooling degree days 33  
Year to date cooling degree days 38  
Growing Degree Days 2 (Base 50)    
Moisture  
Dew Point 40 °F    
Average Humidity 61    
Maximum Humidity 100    
Minimum Humidity 37    
Precipitation  
Precipitation 0.00 in 0.03 in 0.88 in (1942)
Month to date precipitation 0.92  
Year to date precipitation 7.95  
Snow  
Snow 0.00 in - - ()
Month to date snowfall  
Since 1 July snowfall  
Snow Depth -    
Sea Level Pressure  
Sea Level Pressure 30.14 in    
Wind  
Wind Speed 3 mph (South)    
Max Wind Speed 13 mph    
Max Gust Speed 17 mph    
Visibility 10 miles    
Events      
T = Trace of Precipitation, MM = Missing Value Source: NWS Daily Summary

Daily Weather History Graph

Daily Weather History Graph

Search for Another Location

Airport or City:

Trip Planner

Search our weather history database for the weather conditions in past years. The results will help you decide how hot, cold, wet, or windy it might be!

Date:

Astronomy

Apr. 28, 2014 Rise Set
Actual Time 6:08 AM PDT 7:49 PM PDT
Civil Twilight 5:40 AM PDT 8:18 PM PDT
Nautical Twilight 5:06 AM PDT 8:52 PM PDT
Astronomical Twilight 4:30 AM PDT 9:28 PM PDT
Moon 5:49 AM PDT (4/28) 7:33 PM PDT (4/28)
Length of Visible Light 14h 37m
Length of Day
13h 40m
Waning Crescent, 0% of the Moon is Illuminated
Apr 28
Waning Crescent
Apr 28
New
May 6
First Quarter
May 14
Full
May 21
Last Quarter

Hourly Weather History & Observations

Time (PDT) Temp. Windchill Dew Point Humidity Pressure Visibility Wind Dir Wind Speed Gust Speed Precip Events Conditions
12:15 AM 42.8 °F - 39.2 °F 87% 30.10 in 10.0 mi Calm Calm - N/A   Clear
12:55 AM 41.0 °F 39.0 °F 39.2 °F 93% 30.10 in 10.0 mi NE 3.5 mph - N/A   Scattered Clouds
1:15 AM 41.0 °F - 39.2 °F 93% 30.10 in 10.0 mi Calm Calm - N/A   Scattered Clouds
1:35 AM 39.2 °F - 37.4 °F 93% 30.10 in 10.0 mi Calm Calm - N/A   Partly Cloudy
1:55 AM 39.2 °F - 37.4 °F 93% 30.10 in 10.0 mi Calm Calm - N/A   Clear
2:15 AM 39.2 °F - 37.4 °F 93% 30.09 in 10.0 mi Calm Calm - N/A   Clear
2:35 AM 39.2 °F - 37.4 °F 93% 30.09 in 10.0 mi Calm Calm - N/A   Clear
2:55 AM 37.4 °F - 37.4 °F 100% 30.10 in 10.0 mi Calm Calm - N/A   Clear
3:15 AM 37.4 °F - 37.4 °F 100% 30.10 in 10.0 mi Calm Calm - N/A   Clear
3:35 AM 37.4 °F - 37.4 °F 100% 30.10 in 10.0 mi Calm Calm - N/A   Clear
3:55 AM 37.4 °F - 35.6 °F 93% 30.10 in 10.0 mi Calm Calm - N/A   Clear
4:15 AM 37.4 °F - 35.6 °F 93% 30.10 in 10.0 mi Calm Calm - N/A   Clear
5:35 AM 35.6 °F - 35.6 °F 100% 30.11 in 10.0 mi Calm Calm - N/A   Clear
5:55 AM 35.6 °F - 35.6 °F 100% 30.11 in 10.0 mi Calm Calm - N/A   Clear
6:15 AM 35.6 °F - 35.6 °F 100% 30.11 in 10.0 mi Calm Calm - N/A   Clear
6:35 AM 37.4 °F 34.9 °F 37.4 °F 100% 30.12 in 10.0 mi West 3.5 mph - N/A   Clear
6:55 AM 42.8 °F 41.1 °F 37.4 °F 81% 30.13 in 10.0 mi West 3.5 mph - N/A   Clear
7:35 AM 48.2 °F - 37.4 °F 66% 30.14 in 10.0 mi West 3.5 mph - N/A   Clear
7:55 AM 50.0 °F - 37.4 °F 62% 30.14 in 10.0 mi WSW 4.6 mph - N/A   Clear
8:15 AM 53.6 °F - 35.6 °F 51% 30.14 in 10.0 mi WSW 3.5 mph - N/A   Clear
8:35 AM 55.4 °F - 37.4 °F 51% 30.15 in 10.0 mi SW 3.5 mph - N/A   Clear
8:55 AM 57.2 °F - 37.4 °F 48% 30.15 in 10.0 mi SW 6.9 mph - N/A   Clear
9:15 AM 59.0 °F - 37.4 °F 45% 30.15 in 10.0 mi SSW 8.1 mph - N/A   Clear
9:35 AM 59.0 °F - 37.4 °F 45% 30.16 in 10.0 mi SSW 4.6 mph - N/A   Clear
9:55 AM 62.6 °F - 39.2 °F 42% 30.16 in 10.0 mi South 6.9 mph - N/A   Clear
10:15 AM 62.6 °F - 39.2 °F 42% 30.16 in 10.0 mi South 5.8 mph - N/A   Clear
10:35 AM 64.4 °F - 41.0 °F 42% 30.17 in 10.0 mi South 6.9 mph - N/A   Clear
10:55 AM 64.4 °F - 39.2 °F 40% 30.17 in 10.0 mi South 8.1 mph - N/A   Clear
11:15 AM 64.4 °F - 41.0 °F 42% 30.17 in 10.0 mi South 9.2 mph - N/A   Clear
11:35 AM 64.4 °F - 44.6 °F 49% 30.17 in 10.0 mi South 9.2 mph - N/A   Clear
11:55 AM 66.2 °F - 44.6 °F 46% 30.17 in 10.0 mi South 10.4 mph - N/A   Clear
12:35 PM 66.2 °F - 46.4 °F 49% 30.16 in 10.0 mi SSE 10.4 mph - N/A   Clear
12:55 PM 66.2 °F - 46.4 °F 49% 30.16 in 10.0 mi SSE 11.5 mph - N/A   Clear
1:15 PM 68.0 °F - 46.4 °F 46% 30.15 in 10.0 mi South 8.1 mph - N/A   Clear
1:55 PM 68.0 °F - 46.4 °F 46% 30.15 in 10.0 mi SSE 8.1 mph - N/A   Clear
2:15 PM 69.8 °F - 44.6 °F 40% 30.15 in 10.0 mi SSE 9.2 mph - N/A   Clear
2:35 PM 68.0 °F - 44.6 °F 43% 30.15 in 10.0 mi SSE 10.4 mph - N/A   Clear
2:55 PM 69.8 °F - 44.6 °F 40% 30.14 in 10.0 mi SSE 6.9 mph - N/A   Clear
3:15 PM 68.0 °F - 44.6 °F 43% 30.14 in 10.0 mi SSE 12.7 mph 17.3 mph N/A   Clear
3:35 PM 68.0 °F - 44.6 °F 43% 30.14 in 10.0 mi SE 8.1 mph - N/A   Clear
3:55 PM 68.0 °F - 44.6 °F 43% 30.14 in 10.0 mi SE 9.2 mph 17.3 mph N/A   Clear
4:15 PM 68.0 °F - 42.8 °F 40% 30.14 in 10.0 mi ESE 10.4 mph 16.1 mph N/A   Clear
4:35 PM 68.0 °F - 41.0 °F 37% 30.14 in 10.0 mi SE 9.2 mph - N/A   Clear
4:55 PM 68.0 °F - 41.0 °F 37% 30.13 in 10.0 mi ESE 8.1 mph - N/A   Clear
5:15 PM 68.0 °F - 41.0 °F 37% 30.13 in 10.0 mi ESE 6.9 mph - N/A   Clear
5:35 PM 66.2 °F - 41.0 °F 40% 30.13 in 10.0 mi ESE 9.2 mph - N/A   Clear
5:55 PM 66.2 °F - 42.8 °F 43% 30.13 in 10.0 mi SSE 8.1 mph - N/A   Clear
6:15 PM 64.4 °F - 41.0 °F 42% 30.13 in 10.0 mi SE 10.4 mph - N/A   Clear
6:35 PM 64.4 °F - 41.0 °F 42% 30.13 in 10.0 mi South 10.4 mph - N/A   Clear
6:55 PM 62.6 °F - 39.2 °F 42% 30.13 in 10.0 mi SSE 6.9 mph - N/A   Clear
7:15 PM 62.6 °F - 37.4 °F 39% 30.14 in 10.0 mi SSE 4.6 mph - N/A   Clear
7:35 PM 60.8 °F - 37.4 °F 42% 30.14 in 10.0 mi SSE 4.6 mph - N/A   Clear
7:55 PM 59.0 °F - 37.4 °F 45% 30.14 in 10.0 mi SSE 5.8 mph - N/A   Clear
8:15 PM 57.2 °F - 37.4 °F 48% 30.15 in 10.0 mi Calm Calm - N/A   Clear
8:35 PM 57.2 °F - 37.4 °F 48% 30.15 in 10.0 mi SSW 4.6 mph - N/A   Clear
8:55 PM 57.2 °F - 37.4 °F 48% 30.15 in 10.0 mi SW 5.8 mph - N/A   Clear
9:15 PM 57.2 °F - 37.4 °F 48% 30.15 in 10.0 mi Calm Calm - N/A   Clear
9:35 PM 55.4 °F - 37.4 °F 51% 30.15 in 10.0 mi Calm Calm - N/A   Clear
9:55 PM 53.6 °F - 39.2 °F 58% 30.16 in 10.0 mi NW 4.6 mph - N/A   Clear
10:15 PM 50.0 °F - 41.0 °F 71% 30.15 in 10.0 mi Calm Calm - N/A   Clear
10:35 PM 48.2 °F - 41.0 °F 76% 30.15 in 10.0 mi Calm Calm - N/A   Clear
10:55 PM 48.2 °F - 41.0 °F 76% 30.15 in 10.0 mi Calm Calm - N/A   Clear
11:15 PM 48.2 °F - 41.0 °F 76% 30.15 in 10.0 mi NNE 3.5 mph - N/A   Clear
11:35 PM 46.4 °F - 41.0 °F 81% 30.15 in 10.0 mi Calm Calm - N/A   Clear
11:55 PM 46.4 °F - 41.0 °F 81% 30.15 in 10.0 mi Calm Calm - N/A   Clear